[[{"header":{"parameterUnit":"m.s-1","parameterCategory":1,"la1":30.2991,"la2":30.254,"lo1":-89.0895,"lo2":-89.0444,"dy":0.0017,"dx":0.0017,"nx":28,"ny":28,"refTime":"2026-02-06T09:00:00:Z","depth":0,"parameterNumber":2,"parameterNumberName":"U-component_of_WINDS"},"data":[0,0,0,0,0,0,0,0,0,0,0,0,0,0,0,0,0,0,0,0,0,0,0,0,0,0,0,0,0,0,0,0,0,0,0,0,0,0,0,0,0,0,0,0,0,0,0,0,0,0,0,0,0,0,0,0,0,0,4.9609,4.9611,0,4.9771,4.9773,4.9774,4.9671,4.9666,4.9661,4.9657,4.9828,4.9837,4.9846,0,0,0,0,0,0,0,0,0,0,0,0,0,4.9215,4.9223,4.9609,4.9611,4.9613,4.977,4.9773,4.9775,4.9672,4.9666,4.966,4.9655,4.9825,4.9836,4.9846,0,0,0,0,0,0,0,0,0,0,0,0,0,4.9383,4.9225,4.9609,4.9581,4.958,4.977,4.9773,4.9776,4.9673,4.9666,4.9659,4.9652,4.9821,4.9834,4.9848,5.0077,0,0,4.9889,4.9895,0,0,0,0,0,0,0,0,4.9373,4.9397,4.9583,4.9583,4.9582,4.9693,4.9696,4.9877,4.9675,4.9638,4.9657,4.9648,4.9789,4.9805,4.9851,5.0085,5.0092,4.9891,4.9899,4.9905,4.9908,0,0,0,0,0,0,0,4.9362,4.939,4.9673,4.9586,4.9585,4.9561,4.9577,4.973,4.9753,4.9641,4.9633,4.9654,4.9788,4.9839,4.9855,5.0094,4.989,4.9902,4.9911,4.9916,5.0521,5.0528,0,0,0,0,0,0,4.9352,4.9381,4.9668,4.9678,4.9458,4.9574,4.9592,4.9665,4.975,4.9756,4.966,4.9648,4.9819,4.9839,4.986,5.0131,4.9905,4.9917,4.9925,5.0513,5.0522,5.0531,0,0,0,0,0,0,4.9344,4.9378,4.9662,4.9528,4.9562,4.9588,4.9672,4.9672,4.9722,4.9765,4.9769,4.9707,4.9814,4.9841,5.0022,5.0136,4.9923,4.9936,5.0503,5.0516,5.0527,5.0677,0,0,0,0,0,0,4.9333,4.9376,4.9463,4.953,4.9569,4.9821,4.9679,4.968,4.9746,4.9732,4.981,4.9816,4.981,5.0003,5.0036,5.0151,4.9946,5.0493,5.0509,5.0523,5.0662,5.0693,5.0719,0,0,0,0,0,4.9319,4.9501,4.9468,4.9503,4.9678,4.9827,4.985,4.9838,4.9755,4.9843,4.9869,4.9814,5.0118,5.0022,5.0059,5.0179,5.0486,5.0505,5.0522,5.0649,5.0687,5.0718,0,0,0,0,0,0,4.9448,4.9509,4.9473,4.9681,4.975,4.981,4.992,4.9878,4.9973,4.9956,4.9939,4.9957,5.0146,5.0181,5.0073,5.0404,5.0289,5.0315,5.0374,5.041,5.0437,5.0425,4.9958,0,0,0,0,0,4.9501,4.9616,4.9663,4.9842,4.9878,4.9893,4.9958,4.9942,5.0013,5.0042,5.0082,5.0154,5.0266,5.034,5.0445,5.0667,5.0681,5.0768,5.0796,5.0819,5.0841,5.0959,5.0997,5.0589,5.0589,5.0589,0,0,4.9611,4.9658,4.9732,4.9869,4.992,5.004,4.9918,5.0052,5.014,5.0063,5.0235,5.0268,5.0347,5.0549,5.064,5.0584,5.0957,5.0842,5.086,5.087,5.0981,5.102,5.1054,5.0602,5.0599,5.0597,0,0,4.9872,4.992,5.0073,5.0126,5.0204,5.0212,5.0249,5.0315,5.0332,5.0505,5.0448,5.0555,5.0748,5.0806,5.0861,5.1141,5.1093,5.1177,5.1324,5.1439,5.1471,5.1499,5.1598,5.1633,5.1199,5.1199,5.12,0,4.9999,5.0176,5.0158,5.0294,5.0355,5.0288,5.0443,5.0496,5.0606,5.065,5.0585,5.0824,5.0873,5.1086,5.1154,5.1202,5.1243,5.1167,5.1468,5.1496,5.1522,5.1616,5.1653,5.1209,5.1208,5.1207,5.1206,0,5.0328,5.0452,5.0567,5.067,5.0745,5.0891,5.0894,5.0972,5.095,5.0965,5.1141,5.1197,5.1311,5.1361,5.1342,5.1571,5.1533,5.1469,5.1353,5.1571,5.1658,5.1694,5.1222,5.1219,5.1216,5.1214,0,0,5.0676,5.0765,5.0808,5.0853,5.0933,5.1029,5.1171,5.128,5.1346,5.1424,5.1542,5.1706,5.1645,5.1708,5.1695,5.1796,5.2012,5.1718,5.172,5.1769,5.2266,5.2312,5.2354,5.1981,5.1987,5.1993,5.2258,0,5.094,5.1185,5.1171,5.1402,5.1515,5.1452,5.1575,5.1638,5.1656,5.1756,5.1776,5.1892,5.1805,5.1841,5.1939,5.1965,5.2111,5.1946,5.209,5.2095,5.207,5.24,5.2451,5.2699,5.2293,5.2298,5.2303,0,5.1281,5.1366,5.1608,5.1668,5.1715,5.1826,5.1923,5.202,5.2089,5.2095,5.2164,5.2133,5.2277,5.2158,5.2355,5.2243,5.2302,5.2323,5.2333,5.2345,5.2211,5.242,5.2778,5.2814,5.2357,5.2352,5.2349,0,5.1507,5.1684,5.185,5.1891,5.1966,5.2045,5.2081,5.2143,5.2209,5.2295,5.2337,5.244,5.2496,5.2577,5.2575,5.2489,5.2774,5.2656,5.2783,5.2783,5.2845,5.2841,5.3216,5.2886,5.2886,5.2885,5.2884,0,5.1803,5.1952,5.1952,5.2054,5.2219,5.2202,5.2367,5.2394,5.245,5.2557,5.251,5.2611,5.2603,5.2706,5.2706,5.2868,5.2895,5.2903,5.2901,5.2906,5.2905,5.2943,5.2926,5.2895,5.2892,5.2891,5.2889,0,5.2084,5.209,5.2266,5.2322,5.2339,5.2459,5.2507,5.2604,5.2617,5.2752,5.2783,5.2805,5.2923,5.2929,5.3066,5.3066,5.3262,5.3242,5.3238,5.3234,5.3359,5.3347,5.3771,5.3825,5.3462,5.3465,5.3468,0,5.2271,5.2384,5.2451,5.2517,5.2557,5.2666,5.2731,5.2719,5.279,5.2877,5.2963,5.3076,5.3166,5.3358,5.3386,5.349,5.3471,5.3613,5.3487,5.3488,5.3471,5.3463,5.3474,5.3637,5.3641,5.3644,5.3647,0,5.2602,5.2598,5.2694,5.2791,5.287,5.2946,5.3017,5.3075,5.3071,5.3153,5.3271,5.3341,5.3479,5.3591,5.3692,5.373,5.3688,5.3686,5.3721,5.3727,5.3718,5.3722,5.3303,5.3676,5.3673,5.3671,5.367,5.3668,5.284,5.2936,5.2997,5.3105,5.3156,5.3223,5.3316,5.3339,5.3437,5.3547,5.3534,5.3666,5.3732,5.3862,5.3908,5.4011,5.3963,5.4013,5.4026,5.4038,5.405,5.3703,5.403,5.4029,5.4028,5.4027,5.4027,0,5.3166,5.3202,5.3301,5.3399,5.3484,5.3436,5.3511,5.3585,5.3701,5.3764,5.3852,5.3988,5.4097,5.4133,5.4238,5.4314,5.4297,5.4342,5.4335,5.4344,5.4089,5.4047,5.4353,5.4353,5.4353,5.4353,5.4353,5.4353,5.3346,5.3505,5.3509,5.3693,5.3728,5.3855,5.3901,5.3962,5.4013,5.4165,5.4254,5.4276,5.4329,5.4437,5.4535,5.4542,5.4583,5.4635,5.4635,5.4395,5.4362,5.4331,5.4292,5.4644,5.4645,5.4882,5.4884,5.4885]},{"header":{"parameterUnit":"m.s-1","parameterCategory":1,"la1":30.2991,"la2":30.254,"lo1":-89.0895,"lo2":-89.0444,"dy":0.0017,"dx":0.0017,"nx":28,"ny":28,"refTime":"2026-02-06T09:00:00:Z","depth":0,"parameterNumber":3,"parameterNumberName":"V-component_of_WINDS"},"data":[0,0,0,0,0,0,0,0,0,0,0,0,0,0,0,0,0,0,0,0,0,0,0,0,0,0,0,0,0,0,0,0,0,0,0,0,0,0,0,0,0,0,0,0,0,0,0,0,0,0,0,0,0,0,0,0,0,0,2.2991,2.2991,0,2.302,2.3021,2.3021,2.2983,2.2982,2.298,2.2979,2.3009,2.3011,2.3013,0,0,0,0,0,0,0,0,0,0,0,0,0,2.29,2.2902,2.2991,2.2991,2.2992,2.302,2.3021,2.3021,2.2984,2.2982,2.298,2.2979,2.3008,2.3011,2.3013,0,0,0,0,0,0,0,0,0,0,0,0,0,2.2935,2.2902,2.2991,2.2976,2.2975,2.302,2.3021,2.3021,2.2984,2.2982,2.298,2.2978,2.3008,2.3011,2.3014,2.3074,0,0,2.3023,2.3025,0,0,0,0,0,0,0,0,2.2934,2.2939,2.2978,2.2977,2.2976,2.2996,2.3,2.3039,2.2984,2.2981,2.2979,2.2977,2.3006,2.301,2.302,2.3076,2.3077,2.3024,2.3025,2.3027,2.3028,0,0,0,0,0,0,0,2.2931,2.2937,2.3003,2.2979,2.2978,2.2968,2.297,2.3007,2.3005,2.2981,2.2978,2.2982,2.3006,2.3017,2.302,2.3078,2.3024,2.3026,2.3028,2.3029,2.3183,2.3185,0,0,0,0,0,0,2.293,2.2936,2.3002,2.3003,2.2949,2.2971,2.2974,2.2992,2.3004,2.3004,2.2984,2.298,2.3012,2.3016,2.3021,2.3091,2.3027,2.303,2.3032,2.3181,2.3183,2.3186,0,0,0,0,0,0,2.2929,2.2937,2.3,2.2969,2.2976,2.2975,2.2995,2.2993,2.3005,2.3007,2.3006,2.2996,2.3011,2.3017,2.3061,2.3092,2.3031,2.3034,2.3178,2.3182,2.3185,2.3234,0,0,0,0,0,0,2.2926,2.2936,2.296,2.297,2.2978,2.3041,2.2997,2.2996,2.301,2.3006,2.3018,2.3018,2.301,2.3057,2.3064,2.3095,2.3036,2.3175,2.318,2.3184,2.323,2.3239,2.3246,0,0,0,0,0,2.2923,2.2973,2.2961,2.297,2.3007,2.3043,2.3047,2.3037,2.3013,2.3036,2.3037,2.3017,2.3087,2.3061,2.307,2.3102,2.3173,2.3178,2.3183,2.3226,2.3237,2.3246,0,0,0,0,0,0,2.2968,2.2974,2.2961,2.3016,2.3029,2.3036,2.3065,2.305,2.307,2.3065,2.3052,2.3054,2.3102,2.3106,2.3077,2.316,2.3126,2.3133,2.3156,2.3166,2.3174,2.3172,2.3039,0,0,0,0,0,2.2984,2.3012,2.3016,2.3064,2.3071,2.3067,2.3082,2.3073,2.3086,2.3091,2.3096,2.3109,2.3133,2.315,2.3173,2.323,2.3231,2.3256,2.3265,2.3271,2.3277,2.3306,2.3317,2.3202,2.3202,2.3202,0,0,2.3017,2.3024,2.3043,2.3073,2.3082,2.3111,2.3072,2.3105,2.3126,2.3096,2.3138,2.3142,2.3155,2.3206,2.3228,2.3211,2.3309,2.3278,2.3283,2.3285,2.3312,2.3323,2.3333,2.3205,2.3205,2.3204,0,0,2.3093,2.3102,2.3142,2.3151,2.3165,2.3162,2.3172,2.3181,2.3182,2.3224,2.3202,2.3226,2.327,2.328,2.3291,2.3368,2.335,2.3376,2.342,2.3448,2.3457,2.3465,2.3491,2.3501,2.3382,2.3382,2.3382,0,2.3133,2.3176,2.3164,2.3198,2.3211,2.3185,2.3225,2.3235,2.3256,2.3265,2.3245,2.3298,2.3306,2.3357,2.3376,2.3386,2.3396,2.3375,2.3457,2.3465,2.3472,2.3497,2.3507,2.3385,2.3385,2.3385,2.3384,0,2.3224,2.3254,2.3284,2.3304,2.3321,2.3358,2.335,2.3368,2.3358,2.3356,2.3398,2.3406,2.3429,2.3441,2.3431,2.3491,2.348,2.3459,2.3424,2.3486,2.3509,2.3519,2.339,2.3389,2.3388,2.3387,0,0,2.3329,2.3341,2.3353,2.3361,2.3373,2.3396,2.3431,2.3453,2.3468,2.3483,2.3511,2.3548,2.3528,2.354,2.3531,2.3556,2.3615,2.3532,2.3532,2.3546,2.368,2.3695,2.3707,2.3604,2.3605,2.3607,2.3679,0,2.3404,2.3464,2.3454,2.3512,2.3539,2.3514,2.3544,2.3554,2.3554,2.3576,2.3575,2.36,2.3573,2.358,2.3603,2.3603,2.3642,2.3598,2.3629,2.363,2.3626,2.3719,2.3736,2.3803,2.3688,2.3689,2.369,0,2.35,2.3518,2.3578,2.3585,2.3596,2.3623,2.3642,2.3664,2.3675,2.3672,2.3685,2.3671,2.3705,2.3669,2.3715,2.3685,2.3697,2.3698,2.3701,2.3703,2.3664,2.3723,2.3825,2.3834,2.3705,2.3704,2.3703,0,2.3569,2.3608,2.3649,2.3657,2.3666,2.3686,2.3691,2.3699,2.3713,2.373,2.3738,2.3759,2.377,2.3785,2.3776,2.3752,2.3823,2.3787,2.3821,2.3821,2.3837,2.3836,2.3941,2.3846,2.3846,2.3845,2.3845,0,2.3654,2.3692,2.368,2.3705,2.3746,2.3734,2.3775,2.3776,2.3784,2.3808,2.3788,2.3812,2.3799,2.3821,2.3814,2.3852,2.3857,2.3855,2.3853,2.3857,2.3857,2.3864,2.3859,2.3848,2.3848,2.3847,2.3847,0,2.3738,2.3732,2.3775,2.378,2.3782,2.3812,2.3816,2.3839,2.3836,2.3867,2.3873,2.3869,2.3894,2.3886,2.3913,2.3909,2.3956,2.3948,2.3952,2.395,2.3984,2.398,2.4097,2.4111,2.4007,2.4008,2.4009,0,2.3792,2.382,2.3828,2.3843,2.3849,2.3873,2.3887,2.3875,2.3889,2.3903,2.3924,2.3947,2.3965,2.4005,2.4004,2.4024,2.4016,2.4055,2.4019,2.4021,2.4015,2.4013,2.4015,2.4062,2.4063,2.4064,2.4065,0,2.3888,2.3883,2.3904,2.3923,2.3939,2.3954,2.3966,2.398,2.3968,2.3986,2.401,2.4024,2.4051,2.4073,2.4091,2.4095,2.4078,2.4077,2.4085,2.4089,2.409,2.4089,2.3971,2.4074,2.4073,2.4072,2.4072,2.4072,2.3958,2.3981,2.399,2.4013,2.4021,2.4033,2.4054,2.4053,2.4074,2.4095,2.4086,2.4114,2.4123,2.4145,2.4152,2.4173,2.4158,2.4171,2.4174,2.4177,2.4181,2.4087,2.4176,2.4176,2.4176,2.4176,2.4175,0,2.4052,2.4056,2.4077,2.4095,2.4112,2.4095,2.4107,2.4123,2.4148,2.4157,2.4175,2.4202,2.4224,2.4224,2.4244,2.426,2.4253,2.4266,2.4264,2.4265,2.4194,2.4184,2.4272,2.4272,2.4272,2.4272,2.4272,2.4272,2.4103,2.4141,2.4137,2.4178,2.4182,2.4209,2.4217,2.4228,2.4235,2.4267,2.4284,2.4284,2.429,2.4309,2.4328,2.4327,2.4335,2.435,2.4347,2.428,2.427,2.4261,2.4252,2.4353,2.4353,2.4416,2.4417,2.4417]}]]